Bryce, UT

10:23 AM MST on February 12, 2016 (GMT -0700)
Bryce Canyon

Weather History for KBCE - May, 2009

Change the Weather History Date:

Wednesday, May 13, 2009

  Actual Average Record
Temperature  
Mean Temperature 48 °F -  
Max Temperature 66 °F 62 °F 78 °F (1984)
Min Temperature 30 °F 29 °F 19 °F (2004)
Degree Days  
Heating Degree Days 17    
Moisture  
Dew Point 18 °F    
Average Humidity 29    
Maximum Humidity 56    
Minimum Humidity 14    
Precipitation  
Precipitation 0.00 in - - ()
Sea Level Pressure  
Sea Level Pressure 29.80 in    
Wind  
Wind Speed 7 mph (NW)    
Max Wind Speed 16 mph    
Max Gust Speed 36 mph    
Visibility 10 miles    
Events      
Averages and records for this station are not official NWS values.
T = Trace of Precipitation, MM = Missing Value Source: NWS Daily Summary

Daily Weather History Graph

Daily Weather History Graph

Search for Another Location

Airport or City:

Trip Planner

Search our weather history database for the weather conditions in past years. The results will help you decide how hot, cold, wet, or windy it might be!

Date:

Astronomy

May. 13, 2009 Rise Set
Actual Time 6:20 AM MDT 8:30 PM MDT
Civil Twilight 5:51 AM MDT 8:59 PM MDT
Nautical Twilight 5:15 AM MDT 9:35 PM MDT
Astronomical Twilight 4:36 AM MDT 10:14 PM MDT
Moon 12:07 AM MDT (5/13) 9:37 AM MDT (5/13)
Length of Visible Light 15h 08m
Length of Day
14h 09m
Waning Gibbous, 81% of the Moon is Illuminated
May 13
Waning Gibbous
May 17
Last Quarter
May 24
New
May 30
First Quarter
Jun 7
Full

Hourly Weather History & Observations

Time (MDT) Temp. Windchill Dew Point Humidity Pressure Visibility Wind Dir Wind Speed Gust Speed Precip Events Conditions
12:53 AM 50.0 °F - 16.0 °F 26% 29.65 in 10.0 mi Calm Calm - N/A   Clear
1:53 AM 50.0 °F - 17.1 °F 27% 29.65 in 10.0 mi West 5.8 mph - N/A   Clear
2:53 AM 42.1 °F 37.1 °F 17.1 °F 37% 29.68 in 10.0 mi WNW 8.1 mph - N/A   Clear
3:53 AM 41.0 °F 39.0 °F 17.1 °F 38% 29.69 in 7.0 mi North 3.5 mph - N/A   Clear
4:53 AM 37.9 °F 33.5 °F 17.1 °F 43% 29.73 in 10.0 mi WNW 5.8 mph - N/A   Clear
5:53 AM 30.0 °F 26.5 °F 16.0 °F 56% 29.78 in 10.0 mi WNW 3.5 mph - N/A   Clear
6:53 AM 41.0 °F 34.3 °F 14.0 °F 33% 29.77 in 10.0 mi WNW 11.5 mph - N/A   Clear
7:53 AM 45.0 °F 38.9 °F 12.9 °F 27% 29.80 in 10.0 mi North 12.7 mph - N/A   Clear
8:53 AM 46.9 °F - 17.1 °F 30% 29.85 in 10.0 mi NNE 12.7 mph - N/A   Clear
9:53 AM 51.1 °F - 19.0 °F 28% 29.84 in 10.0 mi NNE 13.8 mph 19.6 mph N/A   Clear
10:53 AM 54.0 °F - 18.0 °F 24% 29.84 in 10.0 mi North 12.7 mph - N/A   Clear
11:53 AM 57.9 °F - 17.1 °F 20% 29.88 in 10.0 mi NNE 15.0 mph 19.6 mph N/A   Clear
12:53 PM 61.0 °F - 17.1 °F 18% 29.84 in - NNE 11.5 mph 20.7 mph N/A   Clear
1:53 PM 62.1 °F - 17.1 °F 18% 29.82 in 10.0 mi WNW 16.1 mph 35.7 mph N/A   Clear
2:53 PM 64.9 °F - 14.0 °F 14% 29.84 in 10.0 mi West 13.8 mph 20.7 mph N/A   Clear
3:53 PM 66.0 °F - 18.0 °F 16% 29.81 in 10.0 mi NNW 10.4 mph 17.3 mph N/A   Clear
4:53 PM 66.0 °F - 19.0 °F 17% 29.81 in 10.0 mi WNW 8.1 mph - N/A   Clear
5:53 PM 64.9 °F - 19.9 °F 18% 29.85 in 10.0 mi NW 9.2 mph - N/A   Clear
6:53 PM 62.1 °F - 21.0 °F 21% 29.82 in 10.0 mi West 5.8 mph - N/A   Clear
7:53 PM 59.0 °F - 21.9 °F 24% 29.82 in 10.0 mi WNW 10.4 mph - N/A   Clear
8:53 PM 48.9 °F - 23.0 °F 36% 29.87 in 10.0 mi SW 6.9 mph - N/A   Clear
9:53 PM 48.0 °F - 23.0 °F 37% 29.87 in 10.0 mi WSW 10.4 mph - N/A   Clear
10:53 PM 46.9 °F - 21.9 °F 37% 29.88 in 10.0 mi WNW 6.9 mph - N/A   Clear
11:53 PM 39.9 °F 33.4 °F 21.0 °F 47% 29.90 in - WNW 10.4 mph - N/A   Clear